Mattoon, IL

6:43 PM CDT on April 21, 2018 (GMT -0500)
Coles County Memorial

Weather History for KMTO - December, 2013

Change the Weather History Date:

Sunday, December 15, 2013

  Actual Average Record
Temperature  
Mean Temperature 21 °F 31 °F  
Max Temperature 25 °F 38 °F 71 °F (1948)
Min Temperature 17 °F 24 °F -11 °F (1951)
Degree Days  
Heating Degree Days 44 34  
Month to date heating degree days 554 473  
Since 1 July heating degree days 1671 1532  
Cooling Degree Days 0 0  
Month to date cooling degree days 0 0  
Year to date cooling degree days 1007 1057  
Moisture  
Dew Point 18 °F    
Average Humidity 83    
Maximum Humidity 92    
Minimum Humidity 74    
Precipitation  
Precipitation T in 0.07 in 0.80 in (1987)
Month to date precipitation 0.26 1.24  
Year to date precipitation 41.02 36.52  
Sea Level Pressure  
Sea Level Pressure 30.11 in    
Wind  
Wind Speed 9 mph (WNW)    
Max Wind Speed 23 mph    
Max Gust Speed 26 mph    
Visibility 7 miles    
Events Snow    
T = Trace of Precipitation, MM = Missing Value Source: NWS Daily Summary

Daily Weather History Graph

Daily Weather History Graph

Search for Another Location

Airport or City:

Astronomy

Dec. 15, 2013 Rise Set
Actual Time 7:06 AM CST 4:30 PM CST
Civil Twilight 6:36 AM CST 5:00 PM CST
Nautical Twilight 6:02 AM CST 5:34 PM CST
Astronomical Twilight 5:29 AM CST 6:07 PM CST
Moon 3:34 PM CST (12/15) 5:22 AM CST (12/15)
Length of Visible Light 10h 24m
Length of Day
9h 24m
Waxing Gibbous, 98% of the Moon is Illuminated
Dec 15
Waxing Gibbous
Dec 17
Full
Dec 25
Last Quarter
Jan 1
New
Jan 7
First Quarter

Hourly Weather History & Observations

Time (CST) Temp. Windchill Dew Point Humidity Pressure Visibility Wind Dir Wind Speed Gust Speed Precip Events Conditions
12:53 AM 24.1 °F 9.0 °F 21.0 °F 88% 30.08 in 7.0 mi NW 21.9 mph - N/A   Overcast
1:53 AM 24.1 °F 11.0 °F 21.9 °F 91% 30.08 in 7.0 mi WNW 16.1 mph - N/A   Overcast
2:07 AM 23.0 °F 8.0 °F 21.0 °F 92% 30.05 in 6.0 mi WNW 20.7 mph - N/A   Overcast
2:35 AM 23.0 °F 10.6 °F 19.9 °F 88% 30.06 in 8.0 mi WNW 13.8 mph - N/A   Overcast
2:45 AM 21.9 °F 7.8 °F 19.9 °F 92% 30.06 in 8.0 mi WNW 17.3 mph - N/A   Overcast
2:53 AM 21.9 °F 8.7 °F 19.9 °F 92% 30.09 in 8.0 mi WNW 15.0 mph - N/A   Overcast
3:13 AM 21.9 °F 9.2 °F 19.9 °F 92% 30.06 in 7.0 mi WNW 13.8 mph - N/A   Overcast
3:53 AM 21.9 °F 9.8 °F 19.9 °F 92% 30.09 in 7.0 mi WNW 12.7 mph - N/A   Overcast
4:53 AM 21.0 °F 5.7 °F 18.0 °F 88% 30.11 in 8.0 mi WNW 19.6 mph - N/A   Overcast
5:27 AM 18.0 °F 3.6 °F 15.1 °F 88% 30.08 in 8.0 mi West 15.0 mph - N/A   Partly Cloudy
5:53 AM 17.1 °F 3.6 °F 12.9 °F 84% 30.12 in 9.0 mi West 12.7 mph - N/A   Clear
6:33 AM 18.0 °F 3.6 °F 14.0 °F 84% 30.10 in 8.0 mi WNW 15.0 mph - N/A   Mostly Cloudy
6:53 AM 18.0 °F 5.4 °F 15.1 °F 88% 30.14 in 8.0 mi WNW 11.5 mph - N/A   Overcast
7:53 AM 17.1 °F 5.0 °F 14.0 °F 88% 30.16 in 6.0 mi WNW 10.4 mph - N/A   Overcast
8:53 AM 17.1 °F 1.5 °F 14.0 °F 88% 30.18 in 5.0 mi West 17.3 mph - N/A   Overcast
9:53 AM 17.1 °F 3.6 °F 12.9 °F 84% 30.17 in 7.0 mi West 12.7 mph - N/A   Overcast
10:53 AM 19.0 °F 9.0 °F 14.0 °F 81% 30.16 in 7.0 mi West 8.1 mph - N/A   Overcast
11:01 AM 19.0 °F 8.2 °F 14.0 °F 81% 30.13 in 7.0 mi West 9.2 mph - N/A   Overcast
11:19 AM 19.0 °F 7.5 °F 15.1 °F 85% 30.13 in 7.0 mi West 10.4 mph - N/A   Overcast
11:53 AM 19.9 °F 8.6 °F 15.1 °F 81% 30.15 in 7.0 mi West 10.4 mph - N/A   Overcast
12:12 PM 19.9 °F 9.3 °F 15.1 °F 81% 30.11 in 6.0 mi West 9.2 mph - N/A   Haze
12:28 PM 19.9 °F 8.6 °F 15.1 °F 81% 30.11 in 7.0 mi WSW 10.4 mph - N/A   Overcast
12:53 PM 21.0 °F 11.4 °F 15.1 °F 78% 30.13 in 7.0 mi WSW 8.1 mph - N/A   Overcast
1:53 PM 21.9 °F 12.5 °F 16.0 °F 78% 30.11 in 8.0 mi SW 8.1 mph - N/A   Overcast
2:53 PM 24.1 °F 13.7 °F 17.1 °F 75% 30.14 in 9.0 mi West 10.4 mph - N/A   Overcast
3:53 PM 24.1 °F 19.7 °F 18.0 °F 77% 30.12 in 8.0 mi SW 3.5 mph - N/A   Mostly Cloudy
4:53 PM 24.1 °F 18.2 °F 18.0 °F 77% 30.13 in 9.0 mi SW 4.6 mph - N/A   Overcast
5:53 PM 24.1 °F - 19.0 °F 81% 30.14 in 9.0 mi Calm Calm - N/A   Overcast
6:53 PM 24.1 °F - 19.9 °F 84% 30.13 in 8.0 mi Calm Calm - N/A   Overcast
7:16 PM 24.1 °F - 19.9 °F 84% 30.09 in 7.0 mi Calm Calm - N/A   Overcast
7:53 PM 24.1 °F - 19.9 °F 84% 30.14 in 7.0 mi Calm Calm - N/A   Overcast
8:53 PM 24.1 °F - 21.0 °F 88% 30.12 in 2.5 mi Calm Calm - 0.00 in Snow Light Snow
9:06 PM 24.1 °F - 21.9 °F 91% 30.09 in 3.0 mi Calm Calm - 0.00 in Snow Light Snow
9:53 PM 24.1 °F 19.7 °F 23.0 °F 96% 30.12 in 3.0 mi NE 3.5 mph - 0.00 in Snow Light Snow
10:16 PM 24.1 °F 19.7 °F 21.9 °F 91% 30.09 in 2.5 mi ENE 3.5 mph - 0.00 in Snow Light Snow
10:24 PM 24.1 °F 19.7 °F 21.9 °F 91% 30.09 in 3.0 mi ENE 3.5 mph - 0.00 in Snow Light Snow
10:53 PM 24.1 °F 17.0 °F 21.9 °F 91% 30.12 in 4.0 mi NNE 5.8 mph - 0.00 in Snow Light Snow
11:00 PM 24.1 °F 17.0 °F 21.9 °F 91% 30.09 in 4.0 mi NE 5.8 mph - 0.00 in Snow Light Snow
11:53 PM 23.0 °F 17.0 °F 21.9 °F 96% 30.11 in 4.0 mi ENE 4.6 mph - 0.00 in Snow Light Snow